Regional Weather Roundup
Issued by NWS

Home | Current Version | Previous Version | Text Only | Print | Product List | Glossary On
Versions: 1 2 3 4 5 6 7 8 9 10 11 12 13 14 15 16 17 18 19 20 21 22 23 24 25 26 27 28 29 30 31 32 33 34 35 36 37 38 39 40 41 42 43 44 45 46 47 48 49 50
484
ASUS42 KTBW 201316
RWRFL
FLORIDA REGIONAL WEATHER ROUNDUP
NATIONAL WEATHER SERVICE TAMPA BAY RUSKIN FL
900 AM EDT FRI OCT 20 2017

NOTE: "FAIR" INDICATES FEW OR NO CLOUDS BELOW 12,000 FEET WITH NO
SIGNIFICANT WEATHER AND/OR OBSTRUCTIONS TO VISIBILITY.

FLZ001>010-012>015-112-114-115-201400-
PANHANDLE FLORIDA

CITY           SKY/WX    TMP DP  RH WIND       PRES   REMARKS
PENSACOLA      SUNNY     67  58  72 NE6       30.19R
PENSACOLA NAS  PTSUNNY   69  60  73 NE8       30.18R
MILTON NAS     MOSUNNY   63  59  87 E8        30.20
CRESTVIEW      SUNNY     60  56  86 E5        30.22R
DUKE FIELD     MOSUNNY   61  55  81 E5        30.20R
VALPARAISO     MOSUNNY   66  56  69 E9        30.19R
MARY ESTHER    MOSUNNY   65  57  75 E6        30.18R
PANAMA CITY    FAIR      65  58  78 NE5       30.19R
TYNDALL AFB    SUNNY     66  59  78 NE8       30.19R
APALACHICOLA   MOSUNNY   68  64  87 NE10      30.18R

STATION/POSITION SKY/WX   TEMP    WIND        PRES    WAVE   SWELL
                          AIR SEA DIR/SP/G            HT/PER HT/PER
                          (F)     (DEG/KT/KT) (MB)    (FT/S) (FT/S)
30.1N   87.6W              77 79   90/ 17/ 21 1020.2    4/ 5
29.2N   88.2W              80      90/ 17/ 21 1020.1
28.8N   86.0W              79 81   90/ 17/ 19 1019.6R   6/ 7
PANAMA CITY BEAC           66 78   60/  8/ 12 1022.6R
TOWER C                    74      80/ 20/ 21 1021.7R
28.5N   84.5W              77 80   80/ 14/ 17 1020.2R   4/ 6

$$
FLZ011-016>038-118-127-128-134-139-239-201400-
NORTH FLORIDA

CITY           SKY/WX    TMP DP  RH WIND       PRES   REMARKS
MARIANNA       SUNNY     61  56  83 E3        30.22R
TALLAHASSEE    MOSUNNY   68  61  78 E7        30.21R
PERRY          MOSUNNY   67  61  80 NE7       30.21R
LIVE OAK       SUNNY     66  66 100 NE6       30.22R
CROSS CITY     SUNNY     68  64  85 NE12      30.23R
LAKE CITY      FAIR      63  63 100 NE8       30.20R
GAINESVILLE    SUNNY     68  65  90 NE9       30.20R
WILLISTON      SUNNY     72  70  94 VRB5      30.17R
PALATKA        FAIR      72  72 100 N6        30.18R
MAYPORT NAS    PTSUNNY   77  71  82 NE14      30.19R
JACKSONVILLE   MOSUNNY   70  66  87 N6        30.20R
JAX NAS        MOSUNNY   71  67  87 N10       30.19R
JAX CECIL      SUNNY     66  66 100 N12       30.19R
ST AUGUSTINE   SUNNY     79  65  62 NE12      30.18R
PALM COAST     PTSUNNY   75  64  69 NE12      30.14

STATION/POSITION SKY/WX   TEMP    WIND        PRES    WAVE   SWELL
                          AIR SEA DIR/SP/G            HT/PER HT/PER
                          (F)     (DEG/KT/KT) (MB)    (FT/S) (FT/S)
SHELL POINT      NOT AVBL
KEATON BEACH               68      50/  9/ 13 1021.8R
CEDAR KEY                  69      30/  9/ 13 1021.1R
FERNANDINA                 71 75  350/  5/  8 1023.4R
30.7N   81.3W                 77                N/A     5/ 8
MAYPORT                    76 76   40/ 14/ 16 1022.6R
31.4N   80.9W              74 77   40/ 16/ 19 1022.7R   4/ 8   3/ 8
ST AUGUSTINE               79 77   50/ 15/ 16 1021.8R

$$
FLZ040-043>046-052-053-057-058-063-144-201400-
INTERIOR CENTRAL FLORIDA

CITY           SKY/WX    TMP DP  RH WIND       PRES   REMARKS
OCALA          MOSUNNY   70  68  93 N6        30.17R
THE VILLAGES     N/A     72  72 100 CALM      30.06S
LEESBURG       SUNNY     74  72  93 NE5       30.16R
SANFORD        SUNNY     75  69  81 NE7       30.14R
ORLANDO EXEC   SUNNY     75  70  83 NE7       30.14R
ORLANDO INTL   MOSUNNY   75  69  81 NE8       30.14R
KISSIMMEE      SUNNY     77  69  76 E9        30.15R
WINTER HAVEN     N/A    N/A N/A N/A MISG      30.14R
LAKELAND       SUNNY     73  70  88 NE7       30.13R
BARTOW         SUNNY     73  70  88 NE8       30.13R
SEBRING        FAIR      77  70  78 NE10      30.10R
OKEECHOBEE     MOSUNNY   75  70  83 NE7       30.09R

$$
FLZ041-047-054-059-064-141-147-201400-
EAST CENTRAL FLORIDA

CITY           SKY/WX    TMP DP  RH WIND       PRES   REMARKS
ORMOND BEACH   MOSUNNY   77  64  65 NE12      30.16R
DAYTONA BEACH  MOSUNNY   78  67  68 E12       30.15R
DELAND         MOSUNNY   73  70  88 NE5       30.15R
NEW SMYRNA BEA MOSUNNY   77  63  61 E9        30.16R
JFK SPACE CTR  MOSUNNY   78  70  76 E12       30.13R
TITUSVILLE     MOSUNNY   81  66  61 E14       30.14R
CAPE CANAVERAL MOSUNNY   79  67  66 E9        30.12R
PATRICK AFB    SUNNY     80  68  67 NE12      30.12R
MELBOURNE      MOSUNNY   80  68  66 NE16      30.11R
VERO BEACH     MOSUNNY   79  70  74 NE15      30.10R
FT PIERCE      PTSUNNY   81  72  74 E12G22    30.09R
STUART         LGT RAIN  77  77 100 E12       30.09R

STATION/POSITION SKY/WX   TEMP    WIND        PRES    WAVE   SWELL
                          AIR SEA DIR/SP/G            HT/PER HT/PER
                          (F)     (DEG/KT/KT) (MB)    (FT/S) (FT/S)
28.5N   80.2W              80 81   60/ 16/ 19 1020.0R   7/ 8   5/ 8
TRIDENT PIER               79 81   30/  9/ 13 1021.8R
28.4N   80.5W                 80                N/A     4/ 9
27.5N   80.2W                 81                N/A     7/ 8   2/11

$$
FLZ050-056-061-142-242-148-248-149-249-151-251-155-255-
160-260-201400-
WEST CENTRAL FLORIDA

CITY           SKY/WX    TMP DP  RH WIND       PRES   REMARKS
CRYSTAL RIVER  FAIR      72  68  88 NE7       30.16R
INVERNESS      PTSUNNY   72  70  94 NE6       30.16R
BROOKSVILLE    CLOUDY    72  70  93 NE7       30.16R
CLEARWATER AIR FAIR      72  70  94 NE5       30.13R
ST PETE CLEARW SUNNY     76  71  85 NE12      30.12R
TAMPA INTL     MOSUNNY   76  69  79 NE6       30.13R
TAMPA EXEC     SUNNY     72  72 100 NE3       30.14R
PLANT CITY     MOSUNNY   75  70  83 NE7       30.15
MACDILL AFB    MOSUNNY   75  70  83 NE12G17   30.13R
PETER O KNIGHT SUNNY     72  72 100 NE13      30.13R
ST PETERSBURG  SUNNY     74  71  91 NE17      30.11R
SARASOTA       SUNNY     75  70  84 NE9       30.09R
VENICE         FAIR      77  72  83 NE14G21   30.09S

STATION/POSITION SKY/WX   TEMP    WIND        PRES    WAVE   SWELL
                          AIR SEA DIR/SP/G            HT/PER HT/PER
                          (F)     (DEG/KT/KT) (MB)    (FT/S) (FT/S)
CLEARWATER BEACH           73 78   40/  9/ 11 1020.2R
MIDDLE TAMPA BAY           75      70/ 16/ 19 1019.8R
VENICE                     73 81   40/  7/ 10 1018.7R

$$
FLZ066-069-070-075>078-162-262-165-265-201400-
SOUTHWEST FLORIDA AND KEYS

CITY           SKY/WX    TMP DP  RH WIND       PRES   REMARKS
PUNTA GORDA    SUNNY     75  71  87 NE12      30.10R
FT MYERS       MOSUNNY   74  71  91 NE10      30.06S
SOUTHWEST INTL SUNNY     76  73  91 NE12      30.07R
NAPLES         SUNNY     78  74  87 NE13      30.04R
MARCO ISLAND     N/A     77  73  87 NE13      30.06R
IMMOKALEE      FAIR      77  73  88 NE9       30.07S
MARATHON       PTSUNNY   81  75  82 NE12      30.01R
KEY WEST NAS   MOSUNNY   82  79  90 NE12G22   30.01R
KEY WEST INTL  MOSUNNY   82  76  81 NE9G16    30.01R

STATION/POSITION SKY/WX   TEMP    WIND        PRES    WAVE   SWELL
                          AIR SEA DIR/SP/G            HT/PER HT/PER
                          (F)     (DEG/KT/KT) (MB)    (FT/S) (FT/S)
NAPLES                        81   40/  6/ 13 1017.4R
DRY TORTUGAS               82      70/ 16/ 18 1016.6R
SAND KEY                   81                 1016.7R
MOLASSES REEF              82 83   70/ 15/ 17 1016.0R

$$
FLZ067-068-071>074-168-172>174-201400-
SOUTHEAST FLORIDA

CITY           SKY/WX    TMP DP  RH WIND       PRES   REMARKS
W PALM BEACH   PTSUNNY   82  74  76 E14G22    30.06R
BOCA RATON     MOSUNNY   82  73  74 E14       30.05R
FT LAUDER-EXEC SUNNY     82  74  76 NE12      30.04R
FT LAUDERDALE  MOSUNNY   82  74  76 NE9       30.03R
POMPANO BEACH  MOSUNNY   82  73  74 E15       30.04R
PEMBROKE PINES MOSUNNY   83  74  74 NE8       30.05R
OPA LOCKA      SUNNY     82  74  76 NE7       30.04R
MIAMI          MOSUNNY   83  75  77 NE6       30.03R
WEST KENDALL   MOSUNNY   79  75  87 N6        30.03R
HOMESTEAD      CLOUDY    82  77  85 NE12      30.02R

STATION/POSITION SKY/WX   TEMP    WIND        PRES    WAVE   SWELL
                          AIR SEA DIR/SP/G            HT/PER HT/PER
                          (F)     (DEG/KT/KT) (MB)    (FT/S) (FT/S)
PORT EVERGLADES            82      60/ 12/ 17 1016.9R
VIRGINIA KEY               82 83   40/ 11/ 14 1016.4R
LAKE WORTH                 81 82   60/ 17/ 20 1018.6R
FOWEY ROCKS                82 83   50/ 16/ 17 1016.8S
SETTLEMENT POINT           81      70/ 16/ 19 1017.9R

$$





USA.gov is the U.S. government's official web portal to all federal, state and local government web resources and services.